FW8200 Weather Reports


time (UTC)temp
C
wind
direction
speed
KPH
gust
KPH
rain 1hr
cm
rain 24hr
cm
rain mn
cm
humidity
%
barometer
mb
20260510190810 21 14 1.6 3.2 0.00 0.00 0.00 46 1018.6
20260510190307 21 21 1.6 4.8 0.00 0.00 0.00 47 1018.7
20260510185803 21 14 6.4 8.0 0.00 0.00 0.00 47 1018.4
20260510185301 21 43 1.6 3.2 0.00 0.00 0.00 48 1018.7
20260510184758 21 57 3.2 4.8 0.00 0.00 0.00 46 1018.6
20260510184254 21 47 3.2 4.8 0.00 0.00 0.00 46 1018.8
20260510183749 21 24 3.2 4.8 0.00 0.00 0.00 46 1018.8
20260510183244 21 133 0.0 9.7 0.00 0.00 0.00 49 1018.6
20260510182741 21 38 1.6 4.8 0.00 0.00 0.00 48 1018.6
20260510182237 21 0 4.8 8.0 0.00 0.00 0.00 46 1018.8
20260510181734 21 35 3.2 8.0 0.00 0.00 0.00 46 1018.7
20260510181231 21 45 4.8 9.7 0.00 0.00 0.00 45 1018.7
20260510180727 21 11 1.6 4.8 0.00 0.00 0.00 46 1018.5
20260510180224 21 359 1.6 4.8 0.00 0.00 0.00 45 1018.8
20260510175720 21 333 4.8 8.0 0.00 0.00 0.00 47 1018.8
20260510175216 21 45 3.2 9.7 0.00 0.00 0.00 47 1018.6
20260510174714 21 24 1.6 4.8 0.00 0.00 0.00 47 1018.5
20260510174211 20 41 3.2 4.8 0.00 0.00 0.00 47 1018.4
20260510173707 20 8 3.2 11.3 0.00 0.00 0.00 46 1018.4
20260510173203 20 23 3.2 4.8 0.00 0.00 0.00 47 1018.7
20260510172658 20 85 1.6 9.7 0.00 0.00 0.00 46 1018.6
20260510172155 20 54 1.6 3.2 0.00 0.00 0.00 46 1018.4
20260510171651 20 13 3.2 3.2 0.00 0.00 0.00 48 1018.4
20260510171149 20 49 4.8 8.0 0.00 0.00 0.00 47 1018.4
20260510170645 20 80 3.2 8.0 0.00 0.00 0.00 48 1018.1
20260510170142 20 94 1.6 3.2 0.00 0.00 0.00 50 1018.0
20260510165638 20 54 0.0 3.2 0.00 0.00 0.00 51 1017.8
20260510165134 20 78 3.2 4.8 0.00 0.00 0.00 51 1018.0
20260510164631 20 30 8.0 14.5 0.00 0.00 0.00 48 1018.1
20260510164128 20 68 1.6 4.8 0.00 0.00 0.00 50 1018.0
20260510163622 20 82 0.0 3.2 0.00 0.00 0.00 51 1017.8
20260510163119 20 72 1.6 4.8 0.00 0.00 0.00 52 1018.0
20260510162614 20 43 1.6 4.8 0.00 0.00 0.00 51 1017.7
20260510162111 20 131 1.6 4.8 0.00 0.00 0.00 52 1017.7
20260510161606 19 79 1.6 4.8 0.00 0.00 0.00 53 1018.0
20260510161104 19 59 4.8 12.9 0.00 0.00 0.00 54 1017.9
20260510160601 19 72 1.6 12.9 0.00 0.00 0.00 55 1017.7
20260510160100 19 70 0.0 4.8 0.00 0.00 0.00 57 1017.8
20260510155557 18 24 3.2 14.5 0.00 0.00 0.00 57 1017.6
20260510155054 18 76 1.6 8.0 0.00 0.00 0.00 58 1017.3
20260510154549 18 47 0.0 3.2 0.00 0.00 0.00 61 1017.2
20260510154045 18 63 1.6 1.6 0.00 0.00 0.00 61 1017.3
20260510153539 17 49 1.6 1.6 0.00 0.00 0.00 62 1017.3
20260510153037 17 79 3.2 4.8 0.00 0.00 0.00 60 1016.9
20260510152534 17 42 3.2 3.2 0.00 0.00 0.00 63 1017.0
20260510152030 17 31 3.2 8.0 0.00 0.00 0.00 63 1017.0
20260510151526 17 304 4.8 8.0 0.00 0.00 0.00 64 1016.6
20260510151024 17 107 1.6 4.8 0.00 0.00 0.00 64 1016.7
20260510150519 17 111 1.6 8.0 0.00 0.00 0.00 66 1016.7
20260510150016 17 118 3.2 3.2 0.00 0.00 0.00 66 1016.7
20260510145512 17 31 8.0 9.7 0.00 0.00 0.00 67 1016.9
20260510145009 17 78 0.0 4.8 0.00 0.00 0.00 70 1016.5
20260510144505 17 61 3.2 4.8 0.00 0.00 0.00 72 1016.8
20260510144001 17 15 1.6 8.0 0.00 0.00 0.00 74 1017.0
20260510143457 16 354 1.6 8.0 0.00 0.00 0.00 75 1016.9
20260510142954 16 21 4.8 9.7 0.00 0.00 0.00 74 1017.0
20260510142450 16 53 1.6 4.8 0.00 0.00 0.00 76 1017.1
20260510141947 16 50 1.6 9.7 0.00 0.00 0.00 76 1016.9
20260510141444 16 48 0.0 4.8 0.00 0.00 0.00 77 1017.0
20260510140941 16 36 0.0 1.6 0.00 0.00 0.00 77 1017.1
20260510140437 16 45 0.0 4.8 0.00 0.00 0.00 77 1017.3
20260510135936 16 29 1.6 3.2 0.00 0.00 0.00 77 1017.1
20260510135432 16 34 1.6 4.8 0.00 0.00 0.00 77 1017.2
20260510134930 16 8 1.6 3.2 0.00 0.00 0.00 77 1016.9
20260510134426 16 42 1.6 3.2 0.00 0.00 0.00 77 1016.7
20260510133923 16 44 1.6 3.2 0.00 0.00 0.00 77 1016.7
20260510133419 16 54 0.0 1.6 0.00 0.00 0.00 76 1016.7
20260510132914 16 81 1.6 4.8 0.00 0.00 0.00 76 1016.6
20260510132413 16 92 3.2 4.8 0.00 0.00 0.00 76 1016.5
20260510131909 16 85 1.6 8.0 0.00 0.00 0.00 76 1016.4
20260510131407 16 42 1.6 3.2 0.00 0.00 0.00 78 1016.3
20260510130903 16 88 0.0 1.6 0.00 0.00 0.00 79 1016.2
20260510130401 16 38 1.6 1.6 0.00 0.00 0.00 79 1015.9
20260510125857 16 92 1.6 1.6 0.00 0.00 0.00 79 1016.1
20260510125347 16 32 1.6 3.2 0.00 0.00 0.00 79 1015.7
20260510124844 16 60 0.0 9.7 0.00 0.00 0.00 79 1015.9
20260510124341 16 101 1.6 3.2 0.00 0.00 0.00 79 1015.6
20260510123837 16 111 1.6 3.2 0.00 0.00 0.00 79 1015.6
20260510123333 16 58 4.8 4.8 0.00 0.00 0.00 79 1015.3
20260510122829 16 31 1.6 1.6 0.00 0.00 0.00 80 1015.4
20260510122325 16 72 1.6 4.8 0.00 0.00 0.00 79 1015.2
20260510121822 16 74 1.6 3.2 0.00 0.00 0.00 80 1015.1
20260510121320 16 51 0.0 3.2 0.00 0.00 0.00 81 1015.2
20260510120816 16 48 1.6 4.8 0.00 0.00 0.00 81 1015.2
20260510120313 16 60 0.0 1.6 0.00 0.00 0.00 83 1014.9
20260510115808 15 58 0.0 1.6 0.00 0.00 0.00 82 1014.7
20260510115307 15 58 0.0 1.6 0.00 0.00 0.00 82 1014.5
20260510114802 15 50 0.0 1.6 0.00 0.00 0.00 83 1014.4
20260510114259 15 49 0.0 1.6 0.00 0.00 0.00 83 1014.4
20260510113759 15 40 1.6 3.2 0.00 0.00 0.00 83 1014.1
20260510113257 16 49 0.0 0.0 0.00 0.00 0.00 83 1013.9
20260510112753 16 50 0.0 1.6 0.00 0.00 0.00 82 1013.6
20260510112250 16 52 0.0 0.0 0.00 0.00 0.00 82 1013.9
20260510111746 16 50 1.6 1.6 0.00 0.00 0.00 81 1013.7
20260510111243 16 55 1.6 1.6 0.00 0.00 0.00 80 1013.7
20260510110742 16 36 0.0 4.8 0.00 0.00 0.00 79 1013.6
20260510110241 16 33 1.6 3.2 0.00 0.00 0.00 79 1013.5
20260510105740 16 34 3.2 3.2 0.00 0.00 0.00 79 1013.6
20260510105235 16 37 1.6 4.8 0.00 0.00 0.00 79 1013.5
20260510104732 16 17 3.2 4.8 0.00 0.00 0.00 80 1013.3
20260510104230 16 20 1.6 3.2 0.00 0.00 0.00 81 1013.5
20260510103726 16 20 1.6 3.2 0.00 0.00 0.00 81 1013.3
20260510103223 16 24 0.0 1.6 0.00 0.00 0.00 82 1013.0
20260510102722 16 24 1.6 1.6 0.00 0.00 0.00 81 1013.2
20260510102218 16 24 1.6 1.6 0.00 0.00 0.00 81 1013.2
20260510101716 16 24 0.0 1.6 0.00 0.00 0.00 81 1013.3
20260510101215 16 22 1.6 1.6 0.00 0.00 0.00 83 1013.3
20260510100710 16 22 0.0 0.0 0.00 0.00 0.00 83 1013.3
20260510100209 16 22 0.0 0.0 0.00 0.00 0.00 81 1013.0
20260510095703 16 23 0.0 1.6 0.00 0.00 0.00 80 1013.0
20260510095159 16 23 0.0 3.2 0.00 0.00 0.00 78 1013.1
20260510094657 16 24 1.6 1.6 0.00 0.00 0.00 79 1013.0
20260510094154 16 16 1.6 3.2 0.00 0.00 0.00 81 1013.2
20260510093650 16 304 1.6 1.6 0.00 0.00 0.00 83 1012.8
20260510093147 16 304 0.0 1.6 0.00 0.00 0.00 83 1012.8
20260510092643 16 304 0.0 0.0 0.00 0.00 0.00 83 1012.6
20260510092138 16 304 0.0 0.0 0.00 0.00 0.00 83 1012.4
20260510091635 16 304 0.0 1.6 0.00 0.00 0.00 83 1012.5
20260510091131 16 304 0.0 1.6 0.00 0.00 0.00 82 1012.4
20260510090623 16 304 0.0 0.0 0.00 0.00 0.00 84 1012.2
20260510090119 16 304 0.0 0.0 0.00 0.00 0.00 85 1012.1
20260510085614 16 304 0.0 1.6 0.00 0.00 0.00 84 1011.9
20260510085109 16 304 0.0 0.0 0.00 0.00 0.00 84 1011.9
20260510084606 16 304 0.0 0.0 0.00 0.00 0.00 83 1011.8
20260510084103 16 304 0.0 0.0 0.00 0.00 0.00 83 1012.0
20260510083559 16 304 0.0 0.0 0.00 0.00 0.00 83 1011.7
20260510083055 16 304 0.0 0.0 0.00 0.00 0.00 82 1012.0
20260510082553 16 304 0.0 1.6 0.00 0.00 0.00 82 1011.8
20260510082048 16 304 0.0 0.0 0.00 0.00 0.00 81 1011.8
20260510081543 16 304 0.0 0.0 0.00 0.00 0.00 81 1012.0
20260510081039 16 304 0.0 1.6 0.00 0.00 0.00 81 1011.7
20260510080538 17 304 0.0 0.0 0.00 0.00 0.00 81 1012.1
20260510080035 17 304 0.0 0.0 0.00 0.00 0.00 80 1011.8
20260510075533 17 304 0.0 0.0 0.00 0.00 0.00 79 1011.7
20260510075029 17 304 0.0 0.0 0.00 0.00 0.00 79 1011.7
20260510074527 17 304 0.0 0.0 0.00 0.00 0.00 76 1011.6
20260510074022 17 304 0.0 0.0 0.00 0.00 0.00 76 1011.9
20260510073518 17 304 0.0 0.0 0.00 0.00 0.00 75 1012.1
20260510073016 18 304 0.0 1.6 0.00 0.00 0.00 74 1011.7
20260510072512 18 304 0.0 0.0 0.00 0.00 0.00 73 1011.8
20260510072008 17 304 0.0 1.6 0.00 0.00 0.00 74 1012.0
20260510071504 18 302 0.0 1.6 0.00 0.00 0.00 75 1012.2
20260510071003 18 302 0.0 1.6 0.00 0.00 0.00 74 1012.0
20260510070459 18 313 0.0 3.2 0.00 0.00 0.00 73 1011.9
20260510065955 18 21 1.6 3.2 0.00 0.00 0.00 74 1012.0
20260510065452 17 296 3.2 4.8 0.00 0.00 0.00 75 1011.8
20260510064948 17 316 4.8 4.8 0.00 0.00 0.00 76 1011.6
20260510064445 17 287 1.6 1.6 0.00 0.00 0.00 76 1011.2
20260510063942 17 284 1.6 1.6 0.00 0.00 0.00 78 1010.9
20260510063438 17 286 1.6 3.2 0.00 0.00 0.00 79 1010.9
20260510062937 18 254 1.6 1.6 0.00 0.00 0.00 77 1010.7
20260510062437 18 254 1.6 1.6 0.00 0.00 0.00 74 1010.7
20260510061932 17 259 1.6 1.6 0.00 0.00 0.00 83 1010.9
20260510061429 17 261 0.0 0.0 0.00 0.00 0.00 85 1010.9
20260510060925 17 261 0.0 0.0 0.00 0.00 0.00 86 1010.7
20260510060422 17 261 0.0 0.0 0.00 0.00 0.00 87 1010.7
20260510055919 17 261 0.0 0.0 0.00 0.00 0.00 87 1011.1
20260510055414 17 261 0.0 0.0 0.00 0.00 0.00 88 1011.1
20260510054913 17 261 0.0 0.0 0.00 0.00 0.00 89 1011.1
20260510054408 17 261 0.0 1.6 0.00 0.00 0.00 91 1011.3
20260510053903 17 261 1.6 1.6 0.00 0.00 0.00 91 1011.4
20260510053359 16 279 0.0 0.0 0.00 0.00 0.00 91 1011.7
20260510052855 16 279 0.0 0.0 0.00 0.00 0.00 91 1011.8
20260510052351 16 279 0.0 0.0 0.00 0.00 0.00 91 1011.8
20260510051847 16 279 0.0 1.6 0.00 0.00 0.00 91 1012.0
20260510051344 16 279 0.0 1.6 0.00 0.00 0.00 91 1011.8
20260510050841 16 279 0.0 0.0 0.00 0.00 0.00 92 1012.0
20260510050338 16 279 0.0 1.6 0.00 0.00 0.00 92 1011.9
20260510045835 16 279 0.0 0.0 0.00 0.00 0.00 92 1012.0
20260510045331 16 279 0.0 0.0 0.00 0.00 0.00 92 1011.8
20260510044829 16 279 0.0 0.0 0.00 0.00 0.00 92 1012.0
20260510044326 16 279 0.0 0.0 0.00 0.00 0.00 93 1011.9
20260510043822 16 279 0.0 0.0 0.00 0.00 0.00 93 1011.6
20260510043318 16 279 0.0 0.0 0.00 0.00 0.00 92 1011.9
20260510042816 16 279 1.6 1.6 0.00 0.00 0.00 92 1011.5
20260510042312 16 279 0.0 0.0 0.00 0.00 0.00 92 1011.4
20260510041808 16 279 0.0 0.0 0.00 0.00 0.00 92 1011.5
20260510041306 16 279 0.0 0.0 0.00 0.00 0.00 92 1011.5
20260510040803 16 279 0.0 0.0 0.00 0.00 0.00 92 1011.5
20260510040259 16 279 0.0 0.0 0.00 0.00 0.00 91 1011.5
20260510035755 16 279 0.0 0.0 0.00 0.00 0.00 91 1011.6
20260510035251 16 279 0.0 0.0 0.00 0.00 0.00 91 1011.6
20260510034746 16 279 0.0 0.0 0.00 0.00 0.00 91 1011.5
20260510034245 16 279 0.0 0.0 0.00 0.00 0.00 91 1011.5
20260510033741 16 279 0.0 0.0 0.00 0.00 0.00 90 1011.4
20260510033238 16 279 0.0 0.0 0.00 0.00 0.00 90 1011.3
20260510032734 16 279 0.0 0.0 0.00 0.00 0.00 90 1011.1
20260510032231 16 279 0.0 0.0 0.00 0.00 0.00 89 1011.0
20260510031726 16 279 0.0 0.0 0.00 0.00 0.00 88 1011.1
20260510031222 16 279 0.0 0.0 0.00 0.00 0.00 87 1010.9
20260510030721 16 279 0.0 0.0 0.00 0.00 0.00 87 1010.8
20260510030219 17 279 0.0 0.0 0.00 0.00 0.00 86 1010.8
20260510025716 17 279 0.0 0.0 0.00 0.00 0.00 86 1010.8
20260510025214 17 279 0.0 0.0 0.00 0.00 0.00 84 1010.6
20260510024710 17 279 0.0 0.0 0.00 0.00 0.00 83 1010.4
20260510024207 17 279 0.0 0.0 0.00 0.00 0.00 82 1010.4
20260510023702 17 279 0.0 0.0 0.00 0.00 0.00 80 1010.4
20260510023200 17 279 0.0 0.0 0.00 0.00 0.00 79 1010.4
20260510022655 17 279 0.0 0.0 0.00 0.00 0.00 79 1010.2
20260510022150 17 279 0.0 0.0 0.00 0.00 0.00 78 1010.3
20260510021646 18 279 0.0 0.0 0.00 0.00 0.00 77 1009.7
20260510021144 18 279 0.0 0.0 0.00 0.00 0.00 75 1009.8
20260510020638 18 279 0.0 0.0 0.00 0.00 0.00 74 1009.6
20260510020133 18 279 0.0 0.0 0.00 0.00 0.00 74 1009.5
20260510015629 18 279 0.0 0.0 0.00 0.00 0.00 73 1009.5
20260510015126 18 279 0.0 0.0 0.00 0.00 0.00 73 1009.0
20260510014621 19 279 0.0 0.0 0.00 0.00 0.00 71 1009.4
20260510014119 19 279 0.0 0.0 0.00 0.00 0.00 70 1009.1
20260510013619 20 279 0.0 0.0 0.00 0.00 0.00 69 1008.9
20260510013115 20 279 0.0 0.0 0.00 0.00 0.00 66 1008.9
20260510012614 20 279 0.0 0.0 0.00 0.00 0.00 66 1008.9
20260510012111 21 279 0.0 0.0 0.00 0.00 0.00 66 1008.7
20260510011610 21 279 0.0 1.6 0.00 0.00 0.00 64 1008.6
20260510011107 21 279 0.0 0.0 0.00 0.00 0.00 62 1008.3
20260510010603 21 279 0.0 0.0 0.00 0.00 0.00 62 1008.4
20260510010101 22 279 0.0 1.6 0.00 0.00 0.00 61 1008.4
20260510005556 22 278 0.0 1.6 0.00 0.00 0.00 60 1008.2
20260510005054 22 278 0.0 1.6 0.00 0.00 0.00 59 1008.3
20260510004551 22 278 0.0 1.6 0.00 0.00 0.00 58 1008.4
20260510004049 23 279 0.0 0.0 0.00 0.00 0.00 57 1008.4
20260510003546 23 279 0.0 1.6 0.00 0.00 0.00 56 1008.5
20260510003041 24 279 0.0 0.0 0.00 0.00 0.00 53 1008.3
20260510002537 24 285 1.6 3.2 0.00 0.00 0.00 50 1008.4
20260510002034 25 281 0.0 1.6 0.00 0.00 0.00 50 1008.4
20260510001531 25 282 1.6 1.6 0.00 0.00 0.00 49 1008.3
20260510001030 25 275 0.0 1.6 0.00 0.00 0.00 50 1008.4
20260510000524 25 275 0.0 1.6 0.00 0.00 0.00 48 1008.4
20260510000021 26 275 0.0 1.6 0.00 0.00 0.00 47 1008.5
20260509235518 27 272 1.6 1.6 0.00 0.00 0.00 45 1008.4
20260509235015 27 259 0.0 0.0 0.00 0.00 0.00 44 1008.4
20260509234511 27 258 0.0 1.6 0.00 0.00 0.00 45 1008.2
20260509234009 27 271 0.0 1.6 0.00 0.00 0.00 44 1008.3
20260509233507 27 271 0.0 0.0 0.00 0.00 0.00 43 1008.5
20260509233004 27 240 0.0 0.0 0.00 0.00 0.00 41 1008.6
20260509232500 27 242 0.0 1.6 0.00 0.00 0.00 41 1008.5
20260509231956 27 206 1.6 3.2 0.00 0.00 0.00 39 1008.3
20260509231453 27 196 1.6 3.2 0.00 0.00 0.00 41 1008.6
20260509230951 27 182 3.2 4.8 0.00 0.00 0.00 40 1008.6
20260509230447 27 206 1.6 3.2 0.00 0.00 0.00 41 1008.4
20260509225944 27 206 3.2 4.8 0.00 0.00 0.00 38 1008.4
20260509225440 27 226 1.6 4.8 0.00 0.00 0.00 37 1008.4
20260509224936 27 195 3.2 4.8 0.00 0.00 0.00 39 1008.4
20260509224431 27 196 3.2 4.8 0.00 0.00 0.00 39 1008.4
20260509223929 28 196 4.8 4.8 0.00 0.00 0.00 40 1008.5
20260509223425 28 253 3.2 4.8 0.00 0.00 0.00 36 1008.4
20260509222923 28 245 0.0 4.8 0.00 0.00 0.00 38 1008.5
20260509222418 28 237 0.0 1.6 0.00 0.00 0.00 37 1008.3
20260509221914 30 209 1.6 3.2 0.00 0.00 0.00 36 1008.4
20260509221411 30 244 1.6 4.8 0.00 0.00 0.00 35 1008.5
20260509220907 30 294 0.0 3.2 0.00 0.00 0.00 36 1008.6
20260509220402 29 273 1.6 1.6 0.00 0.00 0.00 37 1008.6
20260509215858 29 248 1.6 1.6 0.00 0.00 0.00 38 1008.4
20260509215355 30 196 1.6 4.8 0.00 0.00 0.00 36 1008.5
20260509214852 30 258 3.2 4.8 0.00 0.00 0.00 36 1008.5
20260509214349 29 261 1.6 1.6 0.00 0.00 0.00 38 1008.6
20260509213846 29 295 8.0 9.7 0.00 0.00 0.00 35 1008.9
20260509213341 28 207 1.6 3.2 0.00 0.00 0.00 38 1008.6
20260509212839 28 159 4.8 4.8 0.00 0.00 0.00 39 1008.6
20260509212337 29 236 1.6 3.2 0.00 0.00 0.00 39 1008.7
20260509211832 29 271 3.2 8.0 0.00 0.00 0.00 39 1008.7
20260509211328 29 241 1.6 3.2 0.00 0.00 0.00 41 1008.8
20260509210825 29 210 1.6 3.2 0.00 0.00 0.00 39 1008.6
20260509210323 29 209 1.6 3.2 0.00 0.00 0.00 41 1008.8
20260509205822 28 283 3.2 4.8 0.00 0.00 0.00 36 1009.0
20260509205317 28 271 1.6 1.6 0.00 0.00 0.00 36 1009.1
20260509204814 30 286 3.2 4.8 0.00 0.00 0.00 39 1008.9
20260509204310 30 275 0.0 3.2 0.00 0.00 0.00 37 1009.2
20260509203806 30 298 0.0 3.2 0.00 0.00 0.00 39 1009.2
20260509203304 28 210 0.0 1.6 0.00 0.00 0.00 40 1009.3
20260509202800 30 210 3.2 3.2 0.00 0.00 0.00 39 1009.3
20260509202256 29 253 1.6 3.2 0.00 0.00 0.00 37 1009.3
20260509201755 29 227 1.6 3.2 0.00 0.00 0.00 39 1009.2
20260509201252 29 279 1.6 8.0 0.00 0.00 0.00 36 1009.3
20260509200749 28 242 0.0 4.8 0.00 0.00 0.00 34 1009.3
20260509200244 28 195 1.6 4.8 0.00 0.00 0.00 38 1009.5
20260509195740 29 307 1.6 8.0 0.00 0.00 0.00 34 1009.6
20260509195236 29 295 3.2 11.3 0.00 0.00 0.00 35 1009.4
20260509194731 29 253 1.6 3.2 0.00 0.00 0.00 36 1009.6
20260509194227 29 301 1.6 4.8 0.00 0.00 0.00 36 1009.5
20260509193724 28 218 1.6 3.2 0.00 0.00 0.00 41 1009.6
20260509193224 29 209 3.2 3.2 0.00 0.00 0.00 43 1009.5
20260509192720 28 211 3.2 4.8 0.00 0.00 0.00 43 1009.4
20260509192215 28 214 1.6 1.6 0.00 0.00 0.00 41 1009.7
20260509191711 28 262 3.2 9.7 0.00 0.00 0.00 41 1009.5
20260509191207 28 317 1.6 3.2 0.00 0.00 0.00 45 1009.5